Погода в Пензе

Погода в Пензе : погода сейчас, прогноз погоды и архив. Всё, что Вы хотите узнать о погоде в Пензе!

Хотите узнать прогноз погоды в Пензе? Тогда Вам сюда: Погода в Пензе

Поиск расширенной информации на нашем сайте:

Другие новости

Новости СМИ2

Главная страница сайта

Новости сайта

02.10.2013

Напоминаем, что на нашем новом сайте вы можете получить высокодетализированные прогнозы погоды по пунктам России, СНГ и мира (включающие важные для авиации метеовеличины, такие как направление и скорость ветра, видимость, явления погоды, количество и форма облачности, нижняя и верхняя граница облачности), а также ознакомиться с разнообразными материалами по авиационной метеорологии и подборкой полезных ссылок на эту тему.

Сайт Метеоцентр.Азия посвящён разработке технологий оптимизации авиаметеорологического обслуживания, включая проектирование и перспективное создание нескольких автоматизированных авиаметеорологических систем:
- система выпуска высокодетальных прогностических карт явлений погоды для нижнего воздушного пространства по России и ближнему зарубежью;
- система верификации прогнозов TAF (выпускаемых синоптиками официальных АМСГ РФ и ближнего зарубежья) и AUTOTAF (выпускаемых сайтом Метеоцентр.Азия) - выявление ошибок, онлайн-сопоставление с фактической погодой METAR, автоматическое внесение коррективов в прогнозы при резком отклонении фактической погоды от прогноза, подсчёт оправдываемости прогнозов по элементам и в целом;
- система обработки, анализа и отображения авиаметеорологической информации для применения провайдерами метеорологической информации.

Рекомендуем: Нижегородская типография ОЛИВЕР: печать листовок.

Погода в Пензе - сегодня

Время (UTC), дата Ветер
(°,м/с) 
Видим.   Явления Облачность Т
(°С)
Тd
(°С)
f(%) Тe
(°С)
Pmin
(гПа)
dP
(гПа)
Po
(мм)
O2
(г/м3)
Тmin Tmax R s Состояние
почвы
06 18.02.17 260 (З) 10 км  слаб. снег  10/0 средняя 
[As op]
-6.8 -7.3 96 -11  1013.3  -1.1  743  308           
09 18.02.17 260 (З) 4000 м  слаб. снег  10/0 средняя 
[As op]
-4.7 -5.5 94 -9  1012.1  -1  743  305           
12 18.02.17 270 (З) 10 км  позёмок{снег}  10/0 средняя 
[As op]
-2.3 -3 95 -5  1011.4  -0.5  742  302           
15 18.02.17 260 (З) 10 км  слаб. снег  10/0 средняя 
[As op]
-0.9 -1.5 96 -4  1011.2  0.1  742  300    -0.9     
18 18.02.17 290 (З) 10 км  {снег}  10/0 средняя 
[As op]
+0.7 -0.3 93 -3  1010.3  -0.7  742  298           
21 18.02.17 270 (З) 4{10}  10 км    10/0 средняя 
[As op]
+1 +0.6 97 -1  1010.4  0.1  742  298           
00 19.02.17 290 (З) 10 км  слаб. снег  10/0 средняя 
[As op]
+0.6 -0.2 94 -2  1010.3  0.2  742  298           
03 19.02.17 300 (СЗ) 5{10}  10 км  {снег}  10/10 1110 м 
[Sc]
+1.3 -1 85 -1  1010.7  0.6  742  298  -0.9    0.0  31  равномерный
мокрый или
старый снег
100% 
06 19.02.17 310 (СЗ) 4{12}  10 км  {снег}  10/10 1200 м 
[Sc]
+1.4 -1.8 79 -1  1013.1  2.3  744  298           
09 19.02.17 320 (СЗ) 10 км    10/3 1000 м верхняя 
[Sc|Cs]
+2.3 -2.7 69 1015.2  2.1  745  298           
12 19.02.17 300 (СЗ) 10 км    10/0 средняя, верхняя 
[Ac trans|Cs]
+1.7 -2.3 75 -1  1016.6  1.3  746  299           
15 19.02.17 270 (З) 10 км    10/0 средняя 
[Ac As]
-0.3 -2.2 87 -3  1016.3  -0.5  746  301    +2.4       
18 19.02.17 260 (З) 6{10}  10 км    3/0 средняя 
[Ac As]
-0.4 -2.3 87 -4  1015.8  -0.5  746  301           
21 19.02.17 260 (З) 7-10{13}  10 км    9/0 средняя 
[Ac As]
-0.3 -2.8 83 -4  1014.2  -0.5  744  301           
00 20.02.17 270 (З) 6-11{13}  10 км    10/0 средняя 
[Ac As]
-0.4 -2.1 88 -4  1012.5  -1.6  743  300           
03 20.02.17 280 (З) 6-12{13}  10 км    10/0 средняя 
[Ac As]
+0.1 -1.5 89 -3  1011.8  -0.6  743  299  -0.8      31  равномерный
мокрый или
старый снег
100% 
06 20.02.17 280 (З) 6-12{12}  10 км    10/10 500 м 
[Sc]
+0.6 -1.5 86 -3  1011  -0.8  742  299           
09 20.02.17 280 (З) 7-14{15}  10 км    9/9 660 м 
[Sc]
+1.1 -1.7 82 -3  1010.4  -0.5  742  298           
12 20.02.17 280 (З) 6-12{14}  10 км    10/10 570 м 
[Sc]
+0.7 -1.4 86 -3  1009.6  -0.8  741  298           
15 20.02.17 270 (З) 7-13{14}  10 км    10/10 400 м 
[Frnb]
-0.2 -2 88 -4  1009.4  -0.3  741  299    +1.2       
18 20.02.17 280 (З) 5{13}  10 км    10/10 300 м 
[Frnb]
-0.3 -1.6 91 -3  1009.2  -0.2  741  299           
21 20.02.17 280 (З) 6-11{14}  10 км    10/10 360 м 
[Frnb]
-0.2 -2.1 87 -4  1007.2  -1.9  739  298           
00 21.02.17 260 (З) 7-11{12}  10 км    10/10 330 м 
[Frnb]
-0.2 -1.7 90 -4  1006.1  -1.1  739  298           
03 21.02.17 260 (З) 8-12{13}  10 км    10/10 300 м 
[Frnb]
-0.9 -1.9 93 -5  1004.8  -1.4  738  298  -1      28  равномерный
мокрый или
старый снег
100% 
06 21.02.17 260 (З) 8-13{15}  10 км    9/0 верхняя 
[Cc]
-1.5 -3.3 88 -6  1003.2  -1.6  736  299  -1.8         
Время (UTC), дата Ветер
(°,м/с) 
Видим.   Явления Облачность Т
(°С)
Тd
(°С)
f(%) Тe
(°С)
Pmin
(гПа)
dP
(гПа)
Po
(мм)
O2
(г/м3)
Тmin Tmax R s Состояние
почвы

Для получения пояснительной информации подведите курсор к названию столбца.

ПОГОДА в Пензе - архив

Всё, что Вы хотите узнать о погоде в Пензе - удобно и подробно!

Выберите нужную дату (начиная с 1 января 2015* года) и нажмите кнопку "Найти".
Будут отображены архивные сводки погоды по пункту Пенза, начиная с указанной даты.


Отображать данные в формате CSV (для использования в таблицах Excel)


Внимание! Наш архив погоды предназначен исключительно для личного некоммерческого использования в познавательных целях. Если Вам необходимы официальные справки о состоянии погоды (для производственных, юридических, коммерческих и т.п. целей), обращайтесь в органы Росгидромета.

*Примечание: данная дата относится к архиву по метеостанциям СССР (Россия, СНГ, Балтия).
Архив по метеостанциям Зарубежной Европы и Азии (кроме Китая) хранится 10 дней, по другим регионам земного шара (Китай, Африка, Америка, Австралия, Океания) - 1 день.

Пенза - район местоположения метеостанции


Название, широта, долгота, высота метеостанции:
Пенза (Терновка) 53.1°ш. 45°д. 177 м над ур. моря [Российская Федерация]

Дополнительная информация

В oтличие oт бoльшинства пoгoдных сайтoв мы публикуем пoдрoбную метеoинфoрмацию в детальнoм прoфессиoнальнoм фoрмате.

Характеристики температуры и влажнoсти вoздуха измеряются на высoте 2 м в тени вдали oт зданий и деревьев.
Скoрoсть ветра измеряется на высoте 10 м (на урoвне рoста челoвека скoрoсть ветра ниже в 1.5-2 раза). Если метеoстанция нахoдится в гoрoде или в лесу, тo скoрoсть ветра занижена на 2-4 м/с пo сравнению с oткрытым местoм. Скoрoсть ветра над акватoриями крупных рек и oзёр, а также на вершинах хoлмoв на 2-5 м/с выше, чем в oбычных услoвиях.
Атмoсфернoе давление в разных тoчках местнoсти мoжет значительнo oтличаться oт давления на метеoстанции, в зависимoсти oт услoвий рельефа (при пoдъёме на 10 м давление пoнижается примернo на 1 мм рт.ст.).